Wind_Speed
21 20 20 20 16 16 19 18 17 17 15 14 14 13 13 13 13 14 13 15 15 12 11 14 13 11 11 11 8 2 15 23 22 3 7 7 3 6 5 4 5 4 5 6 4
23 24 22 23 21 17 18 19 19 19 17 14 14 13 13 13 12 12 12 14 14 13 12 11 11 10 10 9 1 4 12 18 17 4 2 2 1 4 2 4 4 5 6 3 1
24 24 25 24 24 22 19 19 20 19 19 16 14 14 13 10 9 9 11 13 14 14 13 13 13 10 2 3 6 10 20 14 16 8 7 4 6 3 3 8 4 8 7 1 4
24 24 26 27 26 25 23 19 20 21 20 17 16 15 15 10 8 11 9 10 11 14 15 13 11 9 6 12 7 15 11 15 7 7 11 10 7 7 8 6 4 3 2 4 6
25 25 24 27 27 27 26 23 20 21 20 17 19 17 17 15 11 9 9 8 10 10 10 12 13 8 9 8 10 17 13 15 20 14 16 10 16 19 17 6 2 3 6 7 13
26 27 27 26 27 28 28 26 24 21 21 19 21 19 19 19 19 13 10 8 8 7 10 12 11 4 6 15 18 15 12 8 15 20 13 11 13 14 7 2 6 8 8 9 9
29 27 28 29 28 28 28 28 25 24 22 21 21 20 22 19 17 21 13 10 10 9 8 10 7 8 14 11 13 11 17 11 18 17 13 16 10 9 7 7 8 6 6 7 7
30 30 28 29 30 30 28 28 25 26 24 22 21 22 25 21 23 21 16 12 11 12 14 11 14 19 19 16 15 10 11 16 19 18 15 11 9 9 11 8 7 5 7 8 6
26 30 31 29 30 31 31 26 25 27 27 24 23 24 27 25 25 21 20 17 14 14 15 19 19 18 15 18 14 15 21 20 14 28 18 13 12 13 12 10 9 6 6 8 10
25 25 31 30 30 30 30 26 28 27 29 28 26 22 22 15 21 23 22 18 17 14 13 20 16 17 16 15 21 15 18 24 21 18 13 15 12 14 11 9 9 8 8 9 10
27 25 25 30 28 29 27 25 27 30 33 30 27 23 19 14 19 22 16 22 18 18 18 15 16 21 14 11 10 11 16 26 22 20 13 11 12 13 10 12 12 10 10 9 11
27 26 24 25 28 24 22 18 23 29 36 36 32 32 23 26 28 19 20 18 25 24 16 15 25 14 9 12 22 23 24 11 10 16 13 13 10 9 9 10 12 11 10 10 10
27 26 24 22 22 16 16 21 27 34 33 35 32 35 26 29 30 24 15 20 19 25 23 23 24 12 11 14 19 23 22 18 11 15 7 11 6 9 13 16 13 11 12 10 12
26 24 23 20 14 12 15 20 28 29 17 33 32 38 34 31 38 26 23 18 24 24 26 27 19 18 22 25 20 23 19 16 12 18 13 20 6 11 5 6 17 13 13 11 10
25 22 20 19 10 12 12 20 17 16 3 13 18 24 30 38 32 33 28 28 27 26 25 28 23 21 23 23 18 23 13 19 22 21 16 21 4 3 3 12 24 18 15 11 13
25 23 18 16 11 15 15 15 11 9 9 11 15 24 23 29 32 19 29 32 24 23 27 23 20 23 25 23 19 14 18 16 14 12 10 14 10 5 16 10 10 14 15 13 13
25 25 19 17 13 14 19 11 12 11 8 16 22 22 25 27 32 30 24 38 33 25 30 33 28 26 23 26 25 18 16 7 5 8 5 4 7 5 6 12 6 7 9 12 12
26 25 21 17 16 16 26 20 14 19 27 6 23 23 27 23 27 35 28 36 36 28 23 27 22 28 20 25 24 24 24 15 6 4 1 6 8 5 7 6 9 7 11 11 13
27 25 23 18 19 17 31 30 22 23 21 28 18 26 25 31 21 26 39 37 37 39 27 22 29 18 26 22 25 21 25 29 24 12 1 9 11 8 10 12 12 12 14 12 11
28 27 24 22 22 21 33 50 43 25 7 12 26 24 25 25 30 25 36 38 40 38 36 26 18 26 23 24 23 21 17 20 23 5 4 10 12 10 14 13 12 13 13 13 8
27 30 22 27 26 29 42 55 48 40 17 6 19 24 24 23 33 29 22 32 41 35 32 35 23 20 18 33 29 27 27 22 18 6 4 6 5 11 12 5 8 15 14 9 6
30 31 25 26 31 36 45 55 48 38 36 24 16 12 26 23 29 37 28 37 23 38 36 33 14 30 28 33 30 25 24 23 16 4 4 10 3 8 10 7 7 13 6 8 5
33 31 30 28 33 40 42 45 37 46 36 19 13 6 11 14 10 34 36 27 32 23 38 34 31 26 21 26 22 24 24 19 21 10 6 10 10 17 12 6 14 12 12 9 7
34 34 36 31 35 32 30 33 43 52 46 34 19 9 7 21 19 13 33 27 26 24 30 33 28 21 14 26 23 24 25 15 12 22 5 3 31 25 17 13 18 20 9 8 4
40 32 37 31 35 34 31 30 22 40 45 25 22 9 4 10 12 12 30 29 17 27 30 31 30 25 27 14 23 23 21 22 15 8 12 28 26 30 21 20 22 13 11 7 4
44 35 33 35 23 15 29 38 33 39 41 39 30 10 7 14 12 10 15 28 19 28 31 30 23 22 18 17 15 25 19 21 13 8 14 30 31 22 22 16 18 14 11 7 3
43 42 27 35 29 27 29 25 29 32 42 44 29 20 19 17 21 17 24 20 24 31 27 33 25 24 15 15 23 22 27 22 13 8 13 27 18 28 23 18 16 14 10 6 4
Wind_Direction
273 273 275 276 274 267 265 268 271 273 272 266 265 262 260 253 251 245 235 232 236 222 223 228 232 231 236 244 258 175 273 283 306 114 112 95 94 360 50 2 355 316 324 337 351
267 270 271 273 273 270 265 264 265 268 269 265 262 262 258 256 250 250 234 235 235 233 224 224 221 219 233 235 138 258 265 290 313 118 26 152 288 107 44 321 327 19 356 349 22
265 266 268 266 270 268 264 263 263 262 263 262 260 261 255 253 250 236 232 232 226 227 223 222 223 205 314 298 195 250 268 286 298 273 100 95 336 146 341 299 359 345 334 184 147
266 261 264 266 266 268 268 262 261 263 260 260 258 255 250 233 233 227 209 214 216 222 224 223 213 167 229 256 234 276 268 275 236 272 277 290 325 292 325 345 2 346 4 129 159
267 266 260 261 262 263 264 263 261 262 263 256 256 249 247 229 219 224 213 202 210 216 218 217 217 182 217 228 272 283 281 285 282 279 286 308 320 301 315 349 101 170 174 140 151
268 266 266 260 259 258 259 261 259 260 261 260 253 246 244 235 236 223 187 192 186 192 200 203 207 135 285 261 265 268 254 290 280 265 278 309 323 315 318 303 256 238 229 212 233
272 267 265 265 259 257 256 256 257 258 259 259 254 247 241 226 236 236 231 232 214 197 190 171 144 237 257 257 248 266 267 239 269 263 270 291 283 297 289 282 281 276 260 247 240
265 270 266 263 263 258 255 254 255 256 256 261 259 250 239 237 234 236 238 228 227 211 190 161 215 222 234 223 224 245 244 248 240 253 255 238 244 271 275 287 299 285 278 270 249
262 263 269 265 262 259 255 252 254 252 254 254 255 252 247 236 236 235 236 236 238 234 202 193 216 228 237 233 254 234 256 242 239 250 229 216 236 251 256 273 296 278 257 268 285
272 264 264 268 264 260 256 251 250 248 248 250 252 250 248 244 242 235 233 235 241 232 218 215 230 233 241 216 242 253 266 262 250 186 215 216 242 253 246 256 261 253 271 286 277
276 274 267 267 268 262 257 251 248 251 241 240 243 239 227 212 236 233 228 232 228 231 227 228 236 235 243 245 282 289 284 287 183 199 220 236 246 263 269 266 241 246 267 274 272
278 278 276 270 274 268 260 251 246 246 243 240 238 242 229 235 232 221 223 217 221 232 218 210 244 244 242 247 262 273 276 262 168 187 206 208 233 257 273 260 253 241 249 264 273
275 279 283 280 281 291 256 234 231 238 250 235 240 240 225 235 242 230 213 219 226 215 214 222 251 242 234 240 257 257 269 254 247 189 211 217 192 235 281 302 273 240 232 250 259
270 274 282 287 294 266 236 219 228 239 250 252 242 238 225 223 241 228 229 218 220 229 224 227 244 233 242 254 259 256 250 249 249 208 192 220 161 253 339 347 278 249 235 249 252
267 270 275 286 281 244 220 215 220 227 278 250 250 238 236 224 235 231 223 211 223 228 211 222 236 234 251 250 253 264 251 256 238 237 243 205 175 105 322 268 265 254 238 239 227
263 264 264 269 261 227 207 229 195 186 241 210 199 205 206 210 225 215 206 213 233 228 218 227 236 242 240 245 251 259 245 256 262 268 289 46 208 242 261 281 279 249 243 223 236
258 256 256 252 241 213 198 186 181 224 206 223 194 204 203 211 214 199 193 202 207 215 221 221 232 238 236 241 234 244 245 211 263 258 235 267 343 272 224 280 325 299 203 196 215
253 251 246 239 238 221 199 177 220 230 201 173 199 203 196 210 224 197 195 209 214 214 229 227 239 218 226 227 222 229 231 223 206 184 244 298 182 268 272 266 224 228 162 187 182
248 246 237 228 229 224 206 204 216 213 229 209 213 200 205 208 217 210 204 210 217 214 211 210 226 222 223 227 226 222 223 230 250 250 90 129 143 214 241 235 219 185 159 174 203
244 243 228 224 224 225 210 216 225 194 188 230 252 219 202 214 209 203 209 207 218 222 215 213 239 228 220 214 223 215 226 223 244 216 149 165 176 201 241 208 182 164 163 188 205
236 240 218 225 225 228 221 225 232 209 232 285 235 261 227 215 209 213 215 207 214 218 216 216 228 233 234 212 207 216 235 236 252 206 191 147 204 213 244 183 180 159 164 175 166
227 231 222 223 227 232 232 228 236 228 216 254 269 254 242 216 214 216 226 209 209 217 212 218 226 242 260 204 208 214 224 234 248 194 133 118 94 252 214 225 180 137 141 151 134
223 226 224 222 227 233 240 244 255 235 213 232 243 194 197 226 253 219 221 220 215 216 212 216 226 252 276 186 193 207 230 231 238 206 171 136 151 183 203 198 155 156 161 159 215
217 221 217 218 227 236 246 257 250 235 230 227 235 243 205 219 216 249 217 215 220 222 213 212 219 228 229 196 199 211 227 235 241 252 178 153 154 173 200 170 165 170 177 205 220
215 212 220 221 226 237 244 246 255 240 232 227 247 246 248 267 235 237 208 211 210 217 205 207 208 224 225 215 216 222 217 222 220 188 182 160 171 181 191 182 177 183 196 200 197
216 213 204 216 220 233 244 245 238 233 229 220 238 203 179 262 271 284 207 213 210 192 198 206 198 208 229 228 241 217 209 225 187 170 132 153 159 187 186 192 181 188 188 190 154
218 216 203 217 226 243 241 236 237 242 232 218 220 252 276 280 242 228 208 209 209 196 192 202 193 207 238 220 224 216 204 173 124 147 188 164 189 190 193 191 186 182 171 177 96
Height
3132 3133 3133 3133 3134 3135 3135 3136 3137 3139 3139 3140 3141 3142 3142 3144 3144 3145 3147 3149 3149 3151 3153 3155 3157 3159 3160 3162 3164 3165 3167 3163 3163 3161 3159 3158 3163 3163 3161 3160 3159 3160 3160 3160 3160
3127 3127 3129 3130 3130 3131 3132 3133 3133 3136 3137 3137 3138 3140 3139 3141 3143 3143 3146 3146 3147 3149 3151 3153 3155 3157 3159 3160 3162 3164 3165 3164 3166 3158 3158 3155 3159 3161 3161 3161 3161 3159 3158 3159 3159
3122 3123 3123 3126 3126 3127 3128 3129 3130 3132 3134 3134 3134 3137 3137 3139 3141 3142 3142 3143 3145 3146 3148 3150 3153 3154 3156 3159 3160 3162 3164 3165 3162 3159 3160 3158 3155 3156 3159 3161 3159 3159 3157 3158 3157
3117 3118 3119 3119 3121 3121 3122 3125 3126 3128 3130 3130 3131 3134 3135 3137 3140 3138 3140 3141 3143 3144 3146 3148 3151 3153 3155 3158 3159 3162 3162 3164 3161 3158 3158 3158 3159 3159 3159 3158 3157 3156 3154 3155 3156
3111 3112 3114 3115 3115 3116 3118 3120 3121 3124 3125 3126 3129 3130 3132 3135 3137 3137 3138 3140 3141 3143 3145 3147 3149 3151 3154 3156 3157 3159 3160 3160 3156 3156 3155 3156 3158 3158 3156 3155 3156 3155 3155 3154 3153
3105 3106 3107 3109 3110 3111 3113 3115 3117 3118 3120 3122 3125 3126 3128 3132 3133 3135 3137 3138 3140 3141 3143 3145 3148 3151 3154 3154 3154 3155 3156 3158 3152 3152 3155 3155 3156 3156 3155 3154 3153 3153 3153 3152 3151
3098 3100 3101 3102 3104 3106 3108 3110 3112 3114 3115 3117 3120 3120 3123 3129 3130 3131 3136 3138 3139 3140 3143 3146 3148 3150 3151 3151 3153 3152 3152 3153 3149 3151 3153 3154 3156 3155 3154 3154 3154 3154 3154 3154 3153
3092 3093 3094 3095 3098 3099 3102 3104 3107 3109 3111 3112 3114 3116 3118 3124 3126 3129 3133 3135 3137 3138 3141 3142 3144 3146 3147 3149 3148 3149 3149 3148 3148 3148 3151 3152 3154 3153 3152 3152 3152 3153 3153 3154 3155
3086 3086 3087 3089 3090 3093 3094 3100 3102 3103 3105 3107 3109 3111 3114 3119 3121 3126 3128 3132 3134 3136 3137 3139 3141 3143 3146 3146 3147 3147 3144 3145 3145 3145 3147 3149 3150 3149 3149 3150 3151 3152 3153 3153 3154
3079 3081 3081 3082 3084 3085 3089 3094 3095 3097 3098 3100 3103 3110 3112 3114 3116 3120 3124 3128 3130 3132 3135 3137 3139 3140 3142 3143 3142 3142 3143 3142 3144 3143 3143 3146 3147 3146 3147 3148 3150 3150 3151 3152 3152
3071 3073 3075 3075 3077 3079 3085 3087 3091 3092 3091 3095 3096 3101 3105 3107 3112 3116 3119 3123 3126 3127 3130 3133 3136 3133 3136 3138 3140 3141 3140 3140 3136 3140 3143 3144 3143 3144 3145 3145 3147 3148 3149 3150 3150
3065 3067 3069 3070 3070 3073 3078 3080 3082 3081 3083 3085 3093 3095 3102 3103 3106 3110 3114 3119 3121 3123 3128 3133 3126 3132 3135 3137 3138 3139 3139 3143 3140 3138 3141 3140 3142 3141 3142 3144 3145 3146 3147 3147 3148
3060 3061 3063 3065 3067 3070 3071 3073 3073 3072 3076 3079 3085 3087 3097 3099 3100 3105 3110 3113 3117 3120 3123 3124 3123 3129 3132 3134 3136 3136 3137 3138 3140 3138 3138 3138 3140 3140 3140 3142 3142 3142 3144 3145 3146
3055 3058 3059 3062 3069 3065 3066 3067 3066 3070 3075 3070 3074 3077 3085 3092 3091 3102 3104 3111 3112 3114 3118 3121 3121 3126 3129 3131 3134 3133 3134 3136 3136 3133 3133 3134 3139 3140 3141 3142 3141 3142 3143 3144 3144
3050 3053 3056 3058 3061 3062 3064 3063 3067 3073 3077 3068 3065 3073 3078 3081 3090 3092 3099 3101 3106 3109 3114 3114 3117 3120 3123 3125 3129 3130 3131 3132 3132 3131 3131 3132 3134 3138 3139 3138 3137 3140 3141 3142 3142
3045 3048 3053 3055 3058 3059 3062 3063 3070 3076 3065 3061 3059 3061 3067 3075 3082 3090 3091 3097 3104 3106 3109 3111 3115 3118 3118 3121 3125 3127 3128 3128 3128 3128 3127 3132 3135 3139 3136 3136 3136 3137 3138 3140 3140
3040 3043 3049 3051 3055 3058 3061 3065 3071 3064 3057 3056 3055 3058 3062 3068 3074 3082 3085 3090 3093 3100 3101 3103 3107 3110 3115 3118 3120 3122 3124 3125 3128 3127 3127 3129 3131 3132 3132 3131 3134 3136 3136 3138 3138
3034 3038 3043 3047 3050 3054 3059 3063 3060 3045 3048 3053 3054 3057 3060 3064 3067 3074 3080 3085 3090 3095 3097 3101 3104 3102 3108 3112 3115 3117 3120 3120 3125 3125 3123 3129 3131 3131 3132 3132 3133 3135 3135 3136 3137
3028 3032 3037 3043 3045 3049 3054 3053 3040 3038 3045 3050 3055 3053 3056 3059 3065 3070 3074 3078 3081 3084 3093 3093 3095 3100 3104 3108 3112 3113 3114 3116 3118 3118 3118 3128 3133 3132 3132 3132 3133 3132 3133 3135 3135
3022 3026 3031 3036 3039 3043 3044 3032 3028 3036 3040 3042 3051 3053 3053 3056 3062 3064 3068 3070 3075 3080 3087 3089 3094 3095 3099 3104 3107 3108 3112 3115 3115 3116 3119 3127 3128 3127 3129 3130 3129 3130 3131 3133 3133
3016 3017 3029 3028 3034 3034 3028 3021 3023 3030 3039 3041 3040 3046 3050 3052 3055 3059 3060 3065 3069 3075 3083 3084 3090 3090 3096 3096 3100 3105 3106 3109 3110 3110 3113 3120 3123 3121 3126 3128 3128 3130 3131 3131 3132
3009 3010 3019 3023 3025 3021 3017 3016 3022 3025 3034 3035 3036 3040 3044 3046 3049 3054 3056 3060 3065 3070 3075 3079 3086 3085 3088 3088 3095 3098 3102 3105 3105 3107 3106 3109 3121 3119 3125 3127 3127 3128 3129 3130 3131
3000 3006 3012 3016 3012 3010 3012 3013 3016 3023 3031 3032 3030 3032 3034 3040 3045 3047 3051 3056 3063 3065 3069 3075 3081 3084 3084 3089 3092 3094 3099 3101 3102 3102 3102 3106 3122 3122 3122 3125 3127 3128 3128 3129 3131
2997 2998 3003 3004 3004 3008 3011 3009 3009 3019 3022 3027 3025 3026 3028 3032 3038 3041 3046 3053 3056 3061 3066 3073 3076 3079 3082 3084 3089 3091 3093 3098 3100 3100 3099 3102 3109 3118 3119 3122 3126 3127 3127 3129 3131
2985 2985 2992 2993 2997 3001 3006 3006 3006 3013 3018 3024 3021 3023 3028 3031 3034 3038 3042 3048 3052 3056 3062 3068 3072 3075 3078 3081 3085 3087 3090 3094 3096 3094 3096 3104 3105 3111 3116 3120 3123 3125 3127 3129 3130
2976 2981 2988 2990 2994 2996 2997 2998 3003 3007 3012 3014 3019 3019 3026 3033 3036 3036 3040 3045 3048 3053 3057 3063 3068 3073 3075 3079 3081 3083 3086 3090 3089 3091 3094 3102 3111 3115 3117 3120 3122 3125 3127 3127 3128
2968 2974 2981 2984 2988 2990 2992 2994 2996 3004 3006 3009 3014 3020 3025 3028 3029 3032 3037 3041 3045 3048 3052 3058 3064 3071 3074 3075 3077 3080 3082 3084 3085 3089 3091 3098 3103 3109 3114 3118 3121 3123 3125 3126 3127